THOR ABLESTAR DEB, 244

Orbit data source: Space-Track

THOR ABLESTAR DEB, 244 is space debris in LEO originally from a launch on Thu, 29 Jun 1961 UTC launched from the Air Force Eastern Test Range (AFETR). Debris objects in space refer to the collection of defunct objects orbiting the Earth. Examples of debris include non-operational satellites, rocket bodies, and fragments generated from explosions, collisions, or faulty payload assembly.

Loading next visibility...
Identifier
244, 1961-015BZ
Orbit
LEO
Country
Flag of USUS
Related business
Manufacturer
Unknown
Mission
Spacecraft
Bus & Motor
Unknown
Mass
Unknown
Launch date (UTC)
1961-06-29 (64 years ago)
Launch vehicle
Unknown
Launch site
Air Force Eastern Test Range (AFETR)
Object type
Payload
Rocket body
Debris
Shape & HBR
Unknown shape, 0.2 m
Radar Cross Section
Small (<0.1 m²)

Expand to show TLE details & history
Last TLE update: 6 hours ago

TLE from 6 hours ago
0 THOR ABLESTAR DEB
1 00244U 61015BZ  25294.61172080  .00000301  00000-0  27166-3 0  9999
2 00244  66.8391  95.7531 0075796 254.5396 104.7305 13.95621443265846
Epoch: 2025-10-21T14:40Z
TLE epoch observation values (Epoch: 2025-10-21T14:40:52.677Z)
Latitude
-0.00002°
Longitude
-154.76359°
Altitude
925.517 km
Speed
7.382 km/s
True Right ascension
06h 23m 00s
True Declination
0° 00' 00"
Sunlit
Object was in daylight at epoch
Visualization orbit readout
Latitude
Unknown
Longitude
Unknown
Altitude
Unknown
Speed
Unknown
Apparent Right ascension
Unknown
Apparent Declination
Unknown
Sunlit
N/A
Visualization observer readout
Local Sidereal Time
15:16:52
Azimuth
Unknown
Elevation
Unknown
Doppler factor
Unknown
Orbital elements
Apogee altitude
962.603 km
Perigee altitude
852.161 km
Semi-major axis
7,285.519 km
Eccentricity
0.00758
Inclination
66.8391°
RAAN
95.7531°
Arg. of periapsis
254.5396°
True anomaly
105.56846°
Mean anomaly
104.7305°
Eccentric anomaly
105.14969°
Mean motion
3.49022 °/min
Orbital period
103.15 mins
BSTAR
0.00027166

Documentation

Showing up to 5 results
|